Regional Weather Roundup
Issued by NWS

Home | Current Version | Previous Version | Graphics & Text | Print | Product List | Glossary On
Versions: 1 2 3 4 5 6 7 8 9 10 11 12 13 14 15 16 17 18 19 20 21 22 23 24 25 26 27 28 29 30 31 32 33 34 35 36 37 38 39 40 41 42 43 44 45 46 47 48 49 50
000
ASUS43 KMKX 172110
RWRWI

WISCONSIN REGIONAL WEATHER ROUNDUP
NATIONAL WEATHER SERVICE MILWAUKEE/SULLIVAN WI
300 PM CST WED JAN 17 2018

NOTE: "FAIR" INDICATES FEW OR NO CLOUDS BELOW 12,000 FEET WITH NO
SIGNIFICANT WEATHER AND/OR OBSTRUCTIONS TO VISIBILITY.

WIZ001-002-006>008-014>016-023>028-172200-
NORTHWEST WISCONSIN

CITY           SKY/WX    TMP DP  RH WIND       PRES   REMARKS
SUPERIOR ARPT  FAIR      27   6  41 SW9G18    29.94S WCI  17
ASHLAND        FAIR      28   6  39 SW21G26   29.91F WCI  15
HAYWARD        FAIR      25   4  40 SW16      30.00F WCI  12
SIREN          FAIR      24   6  46 SW12      30.04F WCI  13
CUMBERLAND     FAIR      21   5  49 SW13      30.06S WCI   9
RICE LAKE      FAIR      24   7  47 CALM      30.09S
CHETEK         FAIR      26   6  44 SW10      30.08F WCI  16
LADYSMITH      FAIR      24   6  46 SW12      30.07S WCI  13
EAU CLAIRE     FAIR      25   8  48 SW20G26   30.10F WCI  11
MENOMONIE      FAIR      26   8  48 SW14      30.12F WCI  14
NEW RICHMOND   FAIR      22   7  51 SW13G18   30.11S WCI  10
OSCEOLA        FAIR      26   9  48 SW12      30.13S WCI  15
$$

WIZ003>005-009-010-017-018-172200-
NORTH CENTRAL WISCONSIN

CITY           SKY/WX    TMP DP  RH WIND       PRES   REMARKS
MANITOWISH WTR FAIR      24   4  41 SW12      29.93S WCI  13
ARBOR VITAE    FAIR      27   9  47 W14G21    29.94S WCI  15
WOODRUFF       FAIR      27   9  47 W14G21    29.94S WCI  15
RHINELANDER    FAIR      22   7  52 SW15G28   29.97F WCI   9
EAGLE RIVER    FAIR      23   8  52 SW14      29.93S WCI  11
LAND O LAKES   FAIR      28   8  43 SW8G16    29.91F WCI  20
PHILLIPS       FAIR      22   5  49 SW12      30.00F WCI  10
TOMAHAWK       FAIR      23   6  48 SW7       30.02S WCI  14
MEDFORD        FAIR      21   5  49 SW10      30.04F WCI  10
MERRILL        FAIR      21   6  51 SW10G18   30.06F WCI  10
$$

WIZ029-030-035-036-043>047-172200-
CENTRAL WISCONSIN

CITY           SKY/WX    TMP DP  RH WIND       PRES   REMARKS
WAUSAU         FAIR      21   4  47 W16G23    30.06F WCI   7
MOSINEE        MOSUNNY   21   7  53 SW18      30.08F WCI   6
MARSHFIELD     FAIR      23   6  48 SW17      30.08F WCI   9
STEVENS POINT  FAIR      22   4  46 SW14G25   30.11F WCI   9
WAUPACA        FAIR      27   7  42 SW17G25   30.15F WCI  14
WAUTOMA        FAIR      25   8  48 SW17      30.18  WCI  12
WISC RAPIDS    FAIR      23   6  48 SW15      30.15F WCI  10
CAMP DOUGLAS   MOSUNNY   25   7  46 SW12      30.19F WCI  14
$$

WIZ011>013-019>022-031-037>040-048>050-172200-
NORTHEAST WISCONSIN

CITY           SKY/WX    TMP DP  RH WIND       PRES   REMARKS
ANTIGO         FAIR      19   5  53 W23       30.02F WCI   2
SHAWANO        FAIR      25   7  45 SW13G23   30.09F WCI  14
OCONTO         FAIR      24   6  47 SW14G25   30.08F WCI  11
STURGEON BAY   FAIR      23   9  55 SW25      30.06F WCI   7
GREEN BAY      FAIR      24   8  50 SW15G23   30.11F WCI  11
MANITOWOC      FAIR      23   9  55 SW20G33   30.15F WCI   8
APPLETON       NOT AVBL
CLINTONVILLE   FAIR      25   5  42 W12G21    30.11F WCI  14
OSHKOSH        FAIR      21   9  59 SW12G22   30.17F WCI   9
$$

WIZ032>034-041-042-053>061-172200-
SOUTHWEST WISCONSIN

CITY           SKY/WX    TMP DP  RH WIND       PRES   REMARKS
LA CROSSE      FAIR      24   9  52 S17G28    30.22F WCI  11
SPARTA         FAIR      27   7  42 SW9       30.21F WCI  18
VIROQUA        FAIR      22   9  57 SW18G25   30.22F WCI   8
BOSCOBEL       FAIR      25   7  46 SW10      30.31F WCI  15
PRAIRIE DU CHI FAIR      23   6  48 SW10      30.32F WCI  12
PLATTEVILLE    FAIR      22  12  64 SW17      30.33F WCI   8
$$

WIZ056-057-062-063-064-067-068-172200-
SOUTH CENTRAL WISCONSIN

CITY           SKY/WX    TMP DP  RH WIND       PRES   REMARKS
REEDSBURG      FAIR      23   6  49 SW14G20   30.24F WCI  11
BARABOO/DELLS  FAIR      22   6  49 SW14G21   30.23F WCI   9
LONE ROCK      FAIR      23   8  52 SW15G23   30.29F WCI  10
MINERAL POINT  FAIR      23  10  58 SW15      30.28F WCI  10
MADISON        PTSUNNY   20   8  60 SW14G24   30.28F WCI   7
MIDDLETON      FAIR      23  10  56 SW15G25   30.27F WCI  10
WATERTOWN      FAIR      21   9  57 SW16G28   30.26F WCI   7
MONROE         FAIR      19  10  68 SW16G24   30.30F WCI   5
JANESVILLE     MOSUNNY   19   9  63 SW17G24   30.33F WCI   4
$$

WIZ051-052-058>065-066-070>072-172200-
SOUTHEAST WISCONSIN

CITY           SKY/WX    TMP DP  RH WIND       PRES   REMARKS
MILWAUKEE      PTSUNNY   23   8  52 SW22G37   30.27F WCI   8
WAUKESHA       SUNNY     19   7  58 W15G25    30.27F WCI   5
MILWAUKEE/TIMM SUNNY     21   5  49 SW17G29   30.27F WCI   7
RACINE         FAIR      22   8  55 SW14G28   30.31F WCI   9
BURLINGTON     FAIR      20   7  56 SW21G28   30.31F HAZE    WCI   4
KENOSHA        FAIR      20   8  60 SW21G30   30.31F WCI   4
FOND DU LAC    FAIR      22   6  50 SW16G26   30.19F WCI   8
SHEBOYGAN      FAIR      21   9  59 SW18      30.18F WCI   6
WEST BEND      FAIR      21   9  58 SW16G24   30.21F WCI   7
JUNEAU         FAIR      20   8  60 SW18G25   30.25F WCI   5
$$

LSZ147-162-172200-
LAKE SUPERIOR

STATION/POSITION TIME  TEMP    WIND        PRES    WAVE
                       AIR SEA DIR/SP/G            HT/PER
                 (UTC) (F)     (DEG/KT/KT) (MB)    (FT/S)
DEVILS ISLAND    2100   28     230/ 27/ 34 1011.4F
SAXON HARBOR     2030   32     200/ 14/ 20 1012.5F
$$

LMZ867-665-643>646-172200-
LAKE MICHIGAN

STATION/POSITION TIME  TEMP    WIND        PRES    WAVE
                       AIR SEA DIR/SP/G            HT/PER
                 (UTC) (F)     (DEG/KT/KT) (MB)    (FT/S)
NORTHPORT PIER   2041   20     210/  6     1017.3F
KEWAUNEE LAKESHO 2048   22     230/ 11/ 19 1019.2F
SHEBOYGAN LAKESH 2100   23     220/ 15/ 21 1023.2F
PORT WASHINGTON  2040   24     250/ 13/ 24 1024.7F
MILWAUKEE LAKESH 2050   24     240/ 20/ 27   N/A
KENOSHA   LAKESH 2100   22     240/ 17/ 26 1026.8
$$

TC  - TEMPERATURE IN CELSIUS
VSB - VISIBILITY IN STATUTE MILES
WCI - WIND CHILL INDEX
HX  - HEAT INDEX





USA.gov is the U.S. government's official web portal to all federal, state and local government web resources and services.